This demonstration page uses our WeatherBlox Daily Observations layout. Learn more.

Left ArrowRight Arrow

41.86663, -103.66717

Hourly Observations for April 27, 2017

Temp ( °F °C ) Dew Point ( °F °C ) Humidity (%) Winds ( mph kmh ) Pressure ( in mb ) Visibility ( mi km ) Precip ( " mm )
12:53 am 00:53 Cloudy 41 5 37 2.8 86 86 ESE 7 11 29.63 1003 10 16.0934 N/A
1:53 am 01:53 Mostly Clear 40 4.4 37 2.8 89 89 E 9 15 29.59 1002 10 16.0934 N/A
2:53 am 02:53 Clear 39 3.9 36 2.2 89 89 E 9 15 29.56 1001 10 16.0934 N/A
3:53 am 03:53 Clear 38 3.3 35 1.7 89 89 E 8 13 29.55 1001 10 16.0934 N/A
4:53 am 04:53 Clear 37 2.8 34 1.1 89 89 E 8 13 29.54 1000 10 16.0934 N/A
5:53 am 05:53 Mostly Clear 36 2.2 33 0.6 89 89 E 10 17 29.55 1001 10 16.0934 N/A
6:53 am 06:53 Sunny 38 3.3 35 1.7 89 89 ESE 12 19 29.56 1001 10 16.0934 N/A
7:53 am 07:53 Partly Cloudy 39 3.9 35 1.7 86 86 ESE 14 22 29.57 1002 10 16.0934 N/A
8:53 am 08:53 Cloudy 42 5.6 37 2.8 82 82 E 13 20 29.57 1001 10 16.0934 N/A
9:03 am 09:03 Cloudy 43 6 37 3 81 81 E 10 17 29.62 1003 10 16.0934 N/A
9:53 am 09:53 Cloudy 44 6.7 37 2.8 76 76 ESE 9 15 29.56 1001 10 16.0934 N/A
10:53 am 10:53 Cloudy 47 8.3 38 3.3 71 71 N N/A 29.56 1001 10 16.0934 N/A
11:53 am 11:53 Cloudy with Light Rain 47 8.3 40 4.4 77 77 W 6 9 29.55 1001 10 16.0934 0.01 0.254
12:53 pm 12:53 Cloudy with Light Rain 46 7.8 40 4.4 79 79 S 5 7 29.54 1001 4 6.43736 0.02 0.508
1:53 pm 13:53 Cloudy 46 7.8 42 5.6 86 86 E 6 9 29.54 1000 10 16.0934 0.05 1.27
2:53 pm 14:53 Partly Cloudy 49 9.4 42 5.6 77 77 ESE 13 20 29.53 1000 10 16.0934 N/A
3:05 pm 15:05 Mostly Cloudy 49 9.4 40 4.4 71 71 SE 12 19 29.47 998 10 16.0934 N/A
3:53 pm 15:53 Mostly Cloudy 48 8.9 40 4.4 74 74 SSE 8 13 29.54 1000 10 16.0934 N/A
4:07 pm 16:07 Cloudy with Light Rain 46 7.8 39 3.9 77 77 W 14 22 29.53 1000 9 14.48406 N/A
4:15 pm 16:15 Cloudy with Rain 43 6.1 39 3.9 86 86 WSW 9 15 29.56 1001 2.5 4.02335 0.02 0.508
4:26 pm 16:26 Cloudy with Light Rain 43 6.1 40 4.4 89 89 W 6 9 29.56 1001 4 6.43736 0.04 1.016
4:34 pm 16:34 Cloudy with Rain 43 6 39 4 87 87 NW 5 7 29.56 1001 2.5 4.02335 N/A
4:43 pm 16:43 Cloudy with Light Rain 43 6.1 40 4.4 89 89 NNW 7 11 29.56 1001 4 6.43736 0.07 1.778
4:53 pm 16:53 Cloudy with Light Rain 44 6.7 40 4.4 85 85 NNW 8 13 29.55 1001 5 8.0467 0.09 2.286
5:51 pm 17:51 Mostly Cloudy 45 7 41 5 87 87 ESE 14 22 29.56 1001 10 16.0934 0.03 0.762
5:53 pm 17:53 Mostly Cloudy 45 7.2 41 5 86 86 SE 13 20 29.55 1001 10 16.0934 0.03 0.762
6:05 pm 18:05 Mostly Cloudy 44 6.7 41 5 89 89 ESE 15 24 29.56 1001 10 16.0934 N/A
6:53 pm 18:53 Sunny 44 6.7 41 5 89 89 ESE 13 20 29.56 1001 10 16.0934 N/A
7:53 pm 19:53 Cloudy 43 6.1 39 3.9 86 86 ESE 9 15 29.57 1002 10 16.0934 N/A
8:53 pm 20:53 Cloudy 43 6.1 39 3.9 86 86 N 3 6 29.59 1002 10 16.0934 N/A
9:53 pm 21:53 Cloudy 43 6.1 39 3.9 86 86 ESE 10 17 29.6 1002 10 16.0934 N/A
10:53 pm 22:53 Cloudy 43 6.1 39 3.9 86 86 SE 7 11 29.61 1003 10 16.0934 N/A
11:32 pm 23:32 Cloudy 43 6 39 4 87 87 ESE 9 15 29.65 1004 10 16.0934 N/A
11:53 pm 23:53 Cloudy 42 5.6 39 3.9 89 89 ESE 9 15 29.6 1002 10 16.0934 N/A

Powered by AerisWeather